Voltar ao catálogo

CZ-3B DEB

AtivoGTO
NORAD 39335·DEBRIS·🇨🇳 China

Lançado Sep 4, 2010 de Xichang Satellite Launch Center

Loading…

TLE

ObsoletoSource: Space-Track

Época: Sep 4, 2026, 10:57 UTC

1 39335U 10042G   26247.45648189 -.00000294  00000-0 -31470-2 0  9990
2 39335  28.2425  12.7622 7363702   1.7190   6.7631  1.97558436 85626

Acompanhe CZ-3B DEB em tempo real com AllMySat

Download on the App Store